Weather History for Belleville, IL

Change the Weather History Date:

Friday, April 19, 2013

  Actual Average Record
Temperature  
Mean Temperature 45 °F -  
Max Temperature 52 °F 69 °F 84 °F (2002)
Min Temperature 39 °F 47 °F 25 °F (1983)
Degree Days  
Heating Degree Days 20    
Moisture  
Dew Point 28 °F    
Average Humidity 56    
Maximum Humidity 72    
Minimum Humidity 35    
Precipitation  
Precipitation 0.00 in - - ()
Sea Level Pressure  
Sea Level Pressure 29.89 in    
Wind  
Wind Speed 17 mph (West)    
Max Wind Speed 23 mph    
Max Gust Speed 36 mph    
Visibility 10 miles    
Events      
Averages and records for this station are not official NWS values.
T = Trace of Precipitation, MM = Missing Value Source: NWS Daily Summary

Daily Weather History Graph

Daily Weather History Graph

Search for Another Location

Airport:

Trip Planner

Search our weather history database for the weather conditions in past years. The results will help you decide how hot, cold, wet, or windy it might be!

Date:

Astronomy

Apr. 19, 2013 Rise Set
Actual Time 6:17 AM CDT 7:40 PM CDT
Civil Twilight 5:49 AM CDT 8:07 PM CDT
Nautical Twilight 5:16 AM CDT 8:41 PM CDT
Astronomical Twilight 4:41 AM CDT 9:16 PM CDT
Moon 1:28 PM CDT (4/19) 2:28 AM CDT (4/19)
Length of Visible Light 14h 18m
Length of Day
13h 22m
First Quarter, 62% of the Moon is Illuminated
Apr 19
First Quarter
Apr 25
Full
May 2
Last Quarter
May 9
New
May 17
First Quarter

Hourly Weather History & Observations

Time (CDT) Temp. Windchill Dew Point Humidity Pressure Visibility Wind Dir Wind Speed Gust Speed Precip Events Conditions
12:01 AM 42.8 °F 35.1 °F 33.8 °F 70% 29.75 in 10.0 mi WNW 16.1 mph 26.5 mph N/A   Overcast
12:24 AM 42.8 °F 33.5 °F 33.8 °F 70% 29.75 in 10.0 mi WNW 23.0 mph 34.5 mph N/A   Overcast
12:55 AM 41.7 °F 34.1 °F 33.4 °F 72% 29.77 in 10.0 mi WNW 15.0 mph 27.6 mph N/A   Overcast
1:55 AM 40.6 °F 31.7 °F 31.3 °F 69% 29.78 in 10.0 mi WNW 18.4 mph 31.1 mph N/A   Overcast
2:55 AM 40.8 °F 31.1 °F 30.9 °F 68% 29.77 in 10.0 mi West 21.9 mph 29.9 mph N/A   Overcast
3:55 AM 40.6 °F 31.4 °F 30.0 °F 66% 29.78 in 10.0 mi WNW 19.6 mph 29.9 mph N/A   Overcast
4:55 AM 40.3 °F 33.0 °F 30.2 °F 67% 29.79 in 10.0 mi West 12.7 mph - N/A   Overcast
5:55 AM 39.7 °F 30.6 °F 27.7 °F 62% 29.80 in 10.0 mi West 18.4 mph 27.6 mph N/A   Overcast
6:55 AM 39.6 °F 31.0 °F 26.4 °F 59% 29.83 in 10.0 mi West 16.1 mph 25.3 mph N/A   Overcast
7:55 AM 39.6 °F 29.2 °F 26.1 °F 58% 29.86 in 10.0 mi WSW 23.0 mph 29.9 mph N/A   Overcast
8:55 AM 39.4 °F 30.7 °F 27.5 °F 62% 29.88 in 10.0 mi West 16.1 mph 21.9 mph N/A   Overcast
9:55 AM 39.4 °F 29.5 °F 27.1 °F 62% 29.89 in 10.0 mi West 20.7 mph 35.7 mph N/A   Overcast
10:55 AM 39.9 °F 30.8 °F 26.8 °F 59% 29.90 in 10.0 mi WSW 18.4 mph 27.6 mph N/A   Overcast
11:55 AM 41.4 °F 33.6 °F 27.9 °F 59% 29.91 in 10.0 mi West 15.0 mph 24.2 mph N/A   Overcast
12:55 PM 43.9 °F 36.5 °F 28.4 °F 55% 29.91 in 10.0 mi West 16.1 mph 26.5 mph N/A   Overcast
1:55 PM 47.1 °F - 29.3 °F 50% 29.90 in 10.0 mi WSW 17.3 mph 25.3 mph N/A   Mostly Cloudy
2:55 PM 50.4 °F - 28.9 °F 44% 29.90 in 10.0 mi WSW 20.7 mph 25.3 mph N/A   Mostly Cloudy
3:55 PM 51.4 °F - 27.7 °F 40% 29.90 in 10.0 mi West 17.3 mph 27.6 mph N/A   Mostly Cloudy
4:55 PM 51.3 °F - 25.3 °F 37% 29.92 in 10.0 mi West 20.7 mph 27.6 mph N/A   Mostly Cloudy
5:55 PM 50.2 °F - 24.1 °F 36% 29.95 in 10.0 mi West 18.4 mph 26.5 mph N/A   Mostly Cloudy
6:55 PM 49.6 °F - 22.6 °F 35% 29.97 in 10.0 mi West 20.7 mph 27.6 mph N/A   Partly Cloudy
7:55 PM 47.8 °F - 23.4 °F 38% 30.00 in 10.0 mi West 12.7 mph 23.0 mph N/A   Partly Cloudy
8:55 PM 45.9 °F 41.2 °F 24.3 °F 43% 30.03 in 10.0 mi West 9.2 mph - N/A   Clear
9:55 PM 43.2 °F 38.4 °F 24.8 °F 48% 30.06 in 10.0 mi West 8.1 mph - N/A   Clear
10:55 PM 40.8 °F 36.9 °F 26.4 °F 57% 30.07 in 10.0 mi WSW 5.8 mph - N/A   Clear
11:55 PM 39.4 °F 35.2 °F 26.6 °F 60% 30.08 in 10.0 mi SW 5.8 mph - N/A   Clear